Location: Cz?stochówka
(50.8142°N, 19.0915°E)
Time: 07:02:22
(UTC+00:00)

COSMOS 2406 - Pass Details

Date: 13 January 2026
Orbit: 843 x 861 km, 71.0° (Epoch: 10 February)

Event Time Altitude Azimuth Distance (km) Brightness Sun altitude
Exits shadow 05:13:34 - 333° (NNW) 2,753 5.5 -13.2°
Reaches altitude 10° 05:14:15 10° 335° (NNW) 2,496 5.3 -13.1°
Maximum altitude 05:19:56 62° 56° (NE) 962 3.7 -12.3°
Drops below altitude 10° 05:25:37 10° 137° (SE) 2,491 6.7 -11.4°
Sets 05:28:06 0° 141° (SE) 3,425 7.5 -11.1°
